Simultaneous Nadir Overpasses (SNOs) Predictions

Prediction of SNOs between GOES-16 and TERRA Satellite Orbit:

Table of predicted SNOs for the next 14.0 days since TLE Epoch: 6/20/2020
Index Date Time (GOES-16) GOES-16 Lat,Lon TERRA Lat,Lon Distance(km) Time Diff (sec)
1 06/20/2020 15:20:30 0.02, -75.21 -0.63, -72.30 331.25 80
2 06/21/2020 03:39:14 -0.02, -75.19 -0.50, -77.49 260.60 80
3 06/23/2020 03:29:43 -0.02, -75.20 0.15, -74.54 76.68 80
4 06/25/2020 03:14:51 -0.02, -75.22 0.74, -71.57 414.18 80
5 06/25/2020 15:36:07 0.02, -75.23 0.32, -76.73 170.13 80
6 06/27/2020 15:26:36 0.01, -75.25 -0.33, -73.78 168.23 80
7 06/28/2020 03:47:59 -0.01, -75.25 -0.79, -78.97 423.04 80
8 06/30/2020 03:35:48 -0.01, -75.27 -0.19, -76.00 83.95 80
9 07/02/2020 03:20:57 -0.01, -75.30 0.46, -73.05 255.58 80
10 07/02/2020 15:42:12 0.01, -75.32 0.60, -78.21 328.44 80




NCC Satellite Simultaneous Nadir Overpasses (SNOs) Prediction Service
